Location: Northern Prairie Star Party
(53.2167°N, 112.5333°W)
Time: 11:32:27
(UTC-06:00)

Amateur Radio Satellites - All Passes

Search period start: 17 September 2014 11:02
Search period end: 18 September 2014 11:02
Location: Northern Prairie Star Party, 53.2167°N, 112.5333°W

Satellite Date Start Highest point End Downlink Frequencies (MHz)
Time Altitude Azimuth
AO-7 17 Sep 11:08:09 11:11:00 12° 352° (N) 11:13:51 29.400 - 29.500 MHz
UKube-1 17 Sep 11:13:21 11:17:43 68° 103° (ESE) 11:22:04 145.840 MHz, 145.915 MHz
JAS-1B 17 Sep 11:40:32 11:43:53 14° 39° (NE) 11:47:01 435.800 - 435.900 CW/SSB
UOSAT-12 17 Sep 11:42:03 11:43:38 12° 251° (WSW) 11:45:14 437.025 FM, 437.400 FM
RS-15 17 Sep 11:52:35 12:03:18 54° 22° (NNE) 12:14:18 29.354 - 29.394 USB, Beacon 29.352 USB
FUNcube-1 17 Sep 12:18:08 12:22:49 84° 286° (WNW) 12:27:26 145.950 - 145.970 MHz USB
MaSat-1 17 Sep 12:24:00 12:27:57 23° 326° (NW) 12:31:43 437.345 MHz
Oscar 19 17 Sep 12:25:54 12:29:42 21° 54° (NE) 12:33:29 437.125 CW, 437.150 USB
Sapphire 17 Sep 12:26:26 12:28:10 12° 102° (ESE) 12:29:54 437.095 MHz 1200 baud AX-25 AFSK
Oscar 11 17 Sep 12:35:45 12:39:33 30° 297° (WNW) 12:43:19 145.825 FM, Beacon 2401.500 USB
AO-27 17 Sep 12:38:58 12:41:44 15° 48° (NE) 12:44:30 436.795 MHz FM
HO-68 17 Sep 12:46:54 12:53:01 32° 309° (NW) 12:59:09 435.675 MHz FM
UKube-1 17 Sep 12:50:21 12:53:31 20° 303° (WNW) 12:56:41 145.840 MHz, 145.915 MHz
PCSat 17 Sep 12:51:13 12:55:02 20° 108° (ESE) 12:58:52 145.825 MHz
AO-7 17 Sep 12:56:22 13:00:27 15° 20° (NNE) 13:04:31 29.400 - 29.500 MHz
Oscar 16 17 Sep 13:03:00 13:07:44 37° 62° (ENE) 13:12:30 437.025 USB, Beacon 2401.1428
Gurwin Techsat 1B 17 Sep 13:17:30 13:20:32 16° 49° (NE) 13:23:34 435.225 FM
JAS-1B 17 Sep 13:25:25 13:33:01 43° 61° (ENE) 13:39:29 435.800 - 435.900 CW/SSB
AO-Echo 17 Sep 13:36:08 13:40:20 33° 62° (ENE) 13:44:32 ?
ITAMSAT 1 17 Sep 13:41:25 13:46:05 36° 62° (ENE) 13:50:48 435.822 SSB
Uribyol 2 17 Sep 13:46:05 13:50:53 40° 63° (ENE) 13:55:44 436.500 FM
TMSAT-1 17 Sep 13:54:58 13:58:52 21° 54° (NE) 14:02:47 436.925 FM
FUNcube-1 17 Sep 13:55:44 13:58:32 16° 306° (NW) 14:01:20 145.950 - 145.970 MHz USB
Oscar 19 17 Sep 14:03:15 14:08:28 85° 254° (WSW) 14:13:43 437.125 CW, 437.150 USB
MaSat-1 17 Sep 14:04:53 14:06:24 11° 349° (N) 14:07:53 437.345 MHz
Sapphire 17 Sep 14:05:11 14:10:29 58° 122° (ESE) 14:15:49 437.095 MHz 1200 baud AX-25 AFSK
RS-15 17 Sep 14:05:34 14:16:36 80° 231° (SW) 14:28:02 29.354 - 29.394 USB, Beacon 29.352 USB
AO-27 17 Sep 14:15:14 14:20:20 63° 69° (ENE) 14:25:29 436.795 MHz FM
PCSat 17 Sep 14:32:20 14:37:46 89° 128° (SE) 14:43:15 145.825 MHz
HO-68 17 Sep 14:36:22 14:38:39 12° 333° (NNW) 14:40:56 435.675 MHz FM
Oscar 16 17 Sep 14:42:07 14:47:04 43° 262° (W) 14:52:02 437.025 USB, Beacon 2401.1428
AO-7 17 Sep 14:43:45 14:50:50 33° 46° (NE) 14:57:54 29.400 - 29.500 MHz
Uosat F 17 Sep 14:46:27 14:48:51 14° 48° (NE) 14:51:15 435.120 FM
Gurwin Techsat 1B 17 Sep 14:54:21 14:59:36 66° 70° (ENE) 15:04:53 435.225 FM
AO-Echo 17 Sep 15:14:36 15:19:04 41° 262° (W) 15:23:33 ?
JAS-1B 17 Sep 15:15:16 15:23:34 56° 259° (W) 15:30:33 435.800 - 435.900 CW/SSB
ITAMSAT 1 17 Sep 15:20:37 15:25:32 44° 262° (W) 15:30:30 435.822 SSB
Uribyol 2 17 Sep 15:25:36 15:30:25 39° 263° (W) 15:35:17 436.500 FM
TMSAT-1 17 Sep 15:32:55 15:38:13 85° 254° (WSW) 15:43:34 436.925 FM
MaSat-1 17 Sep 15:43:33 15:45:13 12° 13° (NNE) 15:46:49 437.345 MHz
Oscar 19 17 Sep 15:45:31 15:48:37 16° 274° (W) 15:51:44 437.125 CW, 437.150 USB
Sapphire 17 Sep 15:49:06 15:54:11 39° 324° (NW) 15:59:18 437.095 MHz 1200 baud AX-25 AFSK
AO-27 17 Sep 15:56:07 16:00:17 24° 269° (W) 16:04:30 436.795 MHz FM
PCSat 17 Sep 16:17:06 16:21:52 30° 331° (NNW) 16:26:39 145.825 MHz
RS-15 17 Sep 16:18:40 16:27:22 28° 256° (WSW) 16:36:21 29.354 - 29.394 USB, Beacon 29.352 USB
Uosat F 17 Sep 16:21:48 16:26:43 60° 68° (ENE) 16:31:39 435.120 FM
AO-7 17 Sep 16:34:32 16:42:53 87° 249° (WSW) 16:51:15 29.400 - 29.500 MHz
Gurwin Techsat 1B 17 Sep 16:35:49 16:40:03 24° 270° (W) 16:44:19 435.225 FM
JAS-2 17 Sep 16:48:07 16:52:00 22° 54° (NE) 16:55:54 435.800 - 435.900 CW/SSB, 435.910 FM
OPAL 17 Sep 17:09:56 17:13:09 16° 89° (E) 17:16:20 ?
JAS-1B 17 Sep 17:12:00 17:15:32 13° 279° (W) 17:18:51 435.800 - 435.900 CW/SSB
TMSAT-1 17 Sep 17:15:50 17:18:59 16° 275° (W) 17:22:09 436.925 FM
MaSat-1 17 Sep 17:19:47 17:23:32 27° 38° (NE) 17:26:52 437.345 MHz
Hamsat 17 Sep 17:23:28 17:27:12 28° 63° (ENE) 17:30:55 145.90 MHz
Sapphire 17 Sep 17:35:05 17:39:04 20° 349° (N) 17:43:04 437.095 MHz 1200 baud AX-25 AFSK
Uosat F 17 Sep 18:01:51 18:05:54 24° 268° (W) 18:09:58 435.120 FM
PCSat 17 Sep 18:03:09 18:06:59 19° 357° (N) 18:10:50 145.825 MHz
HO-68 17 Sep 18:05:26 18:07:44 12° 27° (NNE) 18:10:02 435.675 MHz FM
AO-7 17 Sep 18:30:18 18:36:50 25° 271° (W) 18:43:25 29.400 - 29.500 MHz
JAS-2 17 Sep 18:31:25 18:36:39 75° 256° (WSW) 18:41:53 435.800 - 435.900 CW/SSB, 435.910 FM
OPAL 17 Sep 18:47:33 18:52:49 87° 109° (ESE) 18:57:58 ?
SO-67 17 Sep 18:51:03 18:54:02 27° 66° (ENE) 18:57:01 435.3500 MHz FM
MaSat-1 17 Sep 18:56:32 19:00:40 55° 242° (WSW) 19:04:12 437.345 MHz
Hamsat 17 Sep 18:58:51 19:03:01 43° 262° (W) 19:07:12 145.90 MHz
Saudisat 1A 17 Sep 19:01:34 19:05:48 47° 126° (SE) 19:10:03 436.775 MHz
Sapphire 17 Sep 19:20:15 19:24:25 22° 15° (NNE) 19:28:34 437.095 MHz 1200 baud AX-25 AFSK
STRAND 1 17 Sep 19:25:18 19:29:16 22° 90° (E) 19:33:14 ?
HO-68 17 Sep 19:47:15 19:53:21 32° 51° (NE) 19:59:29 435.675 MHz FM
PCSat 17 Sep 19:47:44 19:52:14 25° 23° (NNE) 19:56:44 145.825 MHz
KITSAT 1 17 Sep 19:58:55 20:05:36 30° 108° (ESE) 20:12:18 435.175 FM
JAS-2 17 Sep 20:20:44 20:22:50 12° 277° (W) 20:24:57 435.800 - 435.900 CW/SSB, 435.910 FM
SO-67 17 Sep 20:24:01 20:27:02 28° 265° (W) 20:30:05 435.3500 MHz FM
Oscar 11 17 Sep 20:27:05 20:29:01 13° 52° (NE) 20:30:58 145.825 FM, Beacon 2401.500 USB
OPAL 17 Sep 20:27:15 20:31:06 21° 309° (NW) 20:34:55 ?
UKube-1 17 Sep 20:40:04 20:43:19 21° 58° (ENE) 20:46:35 145.840 MHz, 145.915 MHz
Saudisat 1A 17 Sep 20:41:18 20:45:30 40° 327° (NNW) 20:49:42 436.775 MHz
STRAND 1 17 Sep 21:03:51 21:08:58 68° 290° (WNW) 21:14:04 ?
Sapphire 17 Sep 21:03:52 21:09:08 47° 40° (NE) 21:14:23 437.095 MHz 1200 baud AX-25 AFSK
PCSat 17 Sep 21:31:10 21:36:37 68° 47° (NE) 21:42:02 145.825 MHz
HO-68 17 Sep 21:33:23 21:40:32 78° 253° (WSW) 21:47:44 435.675 MHz FM
FUNcube-1 17 Sep 21:45:06 21:48:49 27° 61° (ENE) 21:52:36 145.950 - 145.970 MHz USB
KITSAT 1 17 Sep 21:52:04 22:00:12 88° 311° (NW) 22:08:21 435.175 FM
Oscar 11 17 Sep 22:00:06 22:04:27 70° 72° (ENE) 22:08:50 145.825 FM, Beacon 2401.500 USB
UKube-1 17 Sep 22:14:52 22:19:10 63° 257° (WSW) 22:23:30 145.840 MHz, 145.915 MHz
Saudisat 1A 17 Sep 22:22:49 22:26:08 20° 350° (N) 22:29:28 436.775 MHz
STRAND 1 17 Sep 22:44:24 22:47:19 16° 311° (NW) 22:50:14 ?
Sapphire 17 Sep 22:47:27 22:52:37 46° 241° (WSW) 22:57:46 437.095 MHz 1200 baud AX-25 AFSK
PCSat 17 Sep 23:15:05 23:19:41 29° 248° (WSW) 23:24:15 145.825 MHz
FUNcube-1 17 Sep 23:20:41 23:24:59 49° 261° (W) 23:29:25 145.950 - 145.970 MHz USB
HO-68 17 Sep 23:24:35 23:29:27 19° 275° (W) 23:34:20 435.675 MHz FM
Oscar 11 17 Sep 23:38:12 23:41:07 17° 271° (W) 23:44:04 145.825 FM, Beacon 2401.500 USB
AO-40 17 Sep 23:45:11 01:12:31 14° 123° (ESE) 02:07:34 Beacon 2401.320
KITSAT 1 17 Sep 23:49:00 23:56:35 41° 337° (NNW) 00:04:11 435.175 FM
Saudisat 1A 18 Sep 00:03:39 00:07:07 22° 15° (NNE) 00:10:35 436.775 MHz
SO-50 18 Sep 00:07:52 00:12:12 48° 125° (SE) 00:16:41 436.795 FM
Saudisat 1A 18 Sep 01:43:15 01:47:36 52° 38° (NE) 01:51:56 436.775 MHz
KITSAT 1 18 Sep 01:46:56 01:54:09 34° 6° (N) 02:01:22 435.175 FM
SO-50 18 Sep 01:48:32 01:52:53 42° 327° (NNW) 01:57:22 436.795 FM
UOSAT-12 18 Sep 01:56:02 02:00:31 49° 126° (SE) 02:05:06 437.025 FM, 437.400 FM
Oscar 10/S400 18 Sep 01:57:59 02:51:48 31° 218° (SW) 06:58:09 145.825 - 145.975 CW/USB, Beacon 145.810 USB
Oscar 19 18 Sep 02:09:10 02:13:11 22° 90° (E) 02:17:09 437.125 CW, 437.150 USB
AO-27 18 Sep 02:23:20 02:26:03 14° 85° (E) 02:28:46 436.795 MHz FM
Oscar 16 18 Sep 02:47:09 02:52:07 43° 98° (E) 02:57:02 437.025 USB, Beacon 2401.1428
JAS-1B 18 Sep 02:54:07 02:59:08 28° 91° (E) 03:03:56 435.800 - 435.900 CW/SSB
OPAL 18 Sep 02:54:30 02:57:12 14° 44° (NE) 02:59:54 ?
Gurwin Techsat 1B 18 Sep 03:05:14 03:08:36 17° 86° (E) 03:11:57 435.225 FM
AO-Echo 18 Sep 03:14:48 03:19:17 38° 97° (E) 03:23:50 ?
Saudisat 1A 18 Sep 03:23:05 03:27:04 33° 238° (WSW) 03:31:02 436.775 MHz
ITAMSAT 1 18 Sep 03:26:46 03:31:44 42° 98° (E) 03:36:40 435.822 SSB
SO-50 18 Sep 03:30:57 03:34:34 22° 351° (N) 03:38:15 436.795 FM
Uribyol 2 18 Sep 03:31:24 03:36:29 48° 99° (E) 03:41:32 436.500 FM
UOSAT-12 18 Sep 03:36:20 03:40:49 42° 327° (NNW) 03:45:21 437.025 FM, 437.400 FM
TMSAT-1 18 Sep 03:42:51 03:47:11 25° 91° (E) 03:51:30 436.925 FM
KITSAT 1 18 Sep 03:43:28 03:51:23 53° 34° (NE) 03:59:16 435.175 FM
Oscar 19 18 Sep 03:47:52 03:53:03 69° 290° (WNW) 03:58:10 437.125 CW, 437.150 USB
AO-27 18 Sep 04:01:13 04:06:28 78° 105° (ESE) 04:11:42 436.795 MHz FM
Uosat F 18 Sep 04:25:26 04:26:59 11° 83° (E) 04:28:32 435.120 FM
ISS 18 Sep 04:26:00 04:28:07 16° 144° (SE) 04:30:15 145.800 FM
Oscar 16 18 Sep 04:26:42 04:31:26 36° 298° (WNW) 04:36:07 437.025 USB, Beacon 2401.1428
AO-7 18 Sep 04:29:51 04:35:55 22° 86° (E) 04:41:57 29.400 - 29.500 MHz
OPAL 18 Sep 04:30:01 04:35:06 57° 65° (ENE) 04:40:14 ?
RS-15 18 Sep 04:37:58 04:47:13 33° 107° (ESE) 04:56:23 29.354 - 29.394 USB, Beacon 29.352 USB
Gurwin Techsat 1B 18 Sep 04:44:00 04:49:22 88° 106° (ESE) 04:54:42 435.225 FM
JAS-1B 18 Sep 04:44:29 04:50:24 58° 294° (WNW) 04:55:56 435.800 - 435.900 CW/SSB
AO-Echo 18 Sep 04:53:43 04:58:05 36° 296° (WNW) 05:02:31 ?
ITAMSAT 1 18 Sep 05:06:26 05:11:13 38° 298° (WNW) 05:15:59 435.822 SSB
Uribyol 2 18 Sep 05:11:11 05:15:50 34° 299° (WNW) 05:20:29 436.500 FM
STRAND 1 18 Sep 05:11:29 05:13:52 13° 47° (NE) 05:16:16 ?
SO-50 18 Sep 05:12:43 05:16:34 24° 16° (NNE) 05:20:29 436.795 FM
UOSAT-12 18 Sep 05:18:23 05:22:05 22° 351° (N) 05:25:47 437.025 FM, 437.400 FM
TMSAT-1 18 Sep 05:22:18 05:27:33 63° 291° (WNW) 05:32:47 436.925 FM
Oscar 19 18 Sep 05:28:32 05:31:33 16° 311° (NW) 05:34:33 437.125 CW, 437.150 USB
JAS-2 18 Sep 05:35:06 05:36:26 11° 82° (E) 05:37:47 435.800 - 435.900 CW/SSB, 435.910 FM
KITSAT 1 18 Sep 05:39:08 05:47:05 62° 238° (WSW) 05:54:58 435.175 FM
AO-27 18 Sep 05:41:30 05:45:30 23° 305° (NW) 05:49:29 436.795 MHz FM
ISS 18 Sep 06:01:05 06:04:18 47° 163° (SSE) 06:07:32 145.800 FM
Uosat F 18 Sep 06:01:45 06:06:46 66° 103° (ESE) 06:11:46 435.120 FM
OPAL 18 Sep 06:09:52 06:14:18 28° 264° (W) 06:18:47 ?
AO-7 18 Sep 06:21:45 06:30:06 79° 109° (ESE) 06:38:24 29.400 - 29.500 MHz
Gurwin Techsat 1B 18 Sep 06:24:53 06:28:43 21° 307° (NW) 06:32:34 435.225 FM
JAS-1B 18 Sep 06:36:38 06:39:46 15° 320° (NW) 06:42:46 435.800 - 435.900 CW/SSB
Hamsat 18 Sep 06:38:38 06:42:04 23° 91° (E) 06:45:28 145.90 MHz
STRAND 1 18 Sep 06:47:07 06:52:06 58° 68° (ENE) 06:57:07 ?
RS-15 18 Sep 06:47:17 06:58:18 90° 133° (SE) 07:09:20 29.354 - 29.394 USB, Beacon 29.352 USB
SO-50 18 Sep 06:53:20 06:58:03 57° 39° (NE) 07:02:49 436.795 FM
UOSAT-12 18 Sep 06:59:48 07:03:40 24° 15° (NNE) 07:07:32 437.025 FM, 437.400 FM
TMSAT-1 18 Sep 07:03:39 07:06:33 15° 312° (NW) 07:09:26 436.925 FM
JAS-2 18 Sep 07:17:01 07:22:40 56° 101° (E) 07:29:01 435.800 - 435.900 CW/SSB, 435.910 FM
KITSAT 1 18 Sep 07:36:19 07:40:53 17° 261° (W) 07:45:27 435.175 FM
ISS 18 Sep 07:37:32 07:40:51 67° 183° (S) 07:44:11 145.800 FM
Uosat F 18 Sep 07:41:10 07:45:12 25° 303° (WNW) 07:49:13 435.120 FM
SO-67 18 Sep 07:42:01 07:44:00 14° 89° (E) 07:45:57 435.3500 MHz FM
Hamsat 18 Sep 08:14:09 08:18:19 49° 291° (WNW) 08:22:24 145.90 MHz
AO-7 18 Sep 08:15:02 08:22:19 36° 312° (NW) 08:29:35 29.400 - 29.500 MHz
STRAND 1 18 Sep 08:27:27 08:31:40 26° 268° (W) 08:35:55 ?
SO-50 18 Sep 08:34:10 08:38:29 34° 239° (WSW) 08:42:50 436.795 FM
UOSAT-12 18 Sep 08:40:03 08:44:45 56° 38° (NE) 08:49:23 437.025 FM, 437.400 FM
MaSat-1 18 Sep 08:49:01 08:52:30 19° 105° (ESE) 08:55:55 437.345 MHz
HO-68 18 Sep 08:55:47 08:59:43 15° 82° (E) 09:03:38 435.675 MHz FM
RS-15 18 Sep 09:01:20 09:11:55 50° 343° (NNW) 09:22:38 29.354 - 29.394 USB, Beacon 29.352 USB
JAS-2 18 Sep 09:02:36 09:07:39 34° 299° (WNW) 09:13:12 435.800 - 435.900 CW/SSB, 435.910 FM
SO-67 18 Sep 09:13:58 09:17:22 55° 288° (WNW) 09:20:45 435.3500 MHz FM
ISS 18 Sep 09:14:15 09:17:21 36° 202° (SSW) 09:20:27 145.800 FM
UKube-1 18 Sep 09:58:01 10:00:31 15° 88° (E) 10:03:00 145.840 MHz, 145.915 MHz
AO-7 18 Sep 10:08:28 10:12:51 16° 337° (NNW) 10:17:14 29.400 - 29.500 MHz
UOSAT-12 18 Sep 10:20:29 10:24:45 34° 239° (WSW) 10:28:58 437.025 FM, 437.400 FM
MaSat-1 18 Sep 10:23:42 10:28:46 88° 304° (NW) 10:33:38 437.345 MHz
HO-68 18 Sep 10:41:45 10:48:54 64° 104° (ESE) 10:56:02 435.675 MHz FM
ISS 18 Sep 10:52:28 10:53:22 11° 221° (SW) 10:54:16 145.800 FM
